TimeCDT,TemperatureF,Dew PointF,Humidity,Sea Level PressureIn,VisibilityMPH,Wind Direction,Wind SpeedMPH,Gust SpeedMPH,PrecipitationIn,Events,Conditions,WindDirDegrees,DateUTC
12:53 AM,26.1,15.1,63,30.37,10.0,Calm,Calm,-,N/A,,Clear,0,2013-04-03 05:53:00
1:53 AM,25.0,16.0,69,30.38,10.0,North,4.6,-,N/A,,Clear,360,2013-04-03 06:53:00
2:53 AM,24.1,16.0,71,30.38,10.0,North,5.8,-,N/A,,Clear,360,2013-04-03 07:53:00
3:53 AM,23.0,16.0,74,30.38,10.0,North,6.9,-,N/A,,Clear,10,2013-04-03 08:53:00
4:53 AM,21.9,17.1,82,30.41,10.0,SSE,3.5,-,N/A,,Clear,150,2013-04-03 09:53:00
5:53 AM,21.0,14.0,74,30.43,10.0,Calm,Calm,-,N/A,,Clear,0,2013-04-03 10:53:00
6:53 AM,19.9,17.1,89,30.44,10.0,North,3.5,-,N/A,,Clear,10,2013-04-03 11:53:00
7:53 AM,28.0,18.0,66,30.45,10.0,North,5.8,-,N/A,,Clear,10,2013-04-03 12:53:00
8:53 AM,30.0,17.1,59,30.46,10.0,NE,8.1,-,N/A,,Clear,40,2013-04-03 13:53:00
9:53 AM,34.0,17.1,50,30.46,10.0,East,6.9,-,N/A,,Clear,80,2013-04-03 14:53:00
10:53 AM,36.0,12.9,39,30.46,10.0,East,5.8,-,N/A,,Clear,100,2013-04-03 15:53:00
11:53 AM,37.9,12.0,35,30.45,10.0,SSE,5.8,-,N/A,,Clear,160,2013-04-03 16:53:00
12:53 PM,39.0,10.9,32,30.43,10.0,SSE,5.8,-,N/A,,Clear,160,2013-04-03 17:53:00
1:53 PM,41.0,12.0,31,30.42,10.0,SSE,9.2,-,N/A,,Clear,150,2013-04-03 18:53:00
2:53 PM,41.0,12.9,32,30.40,10.0,Variable,4.6,16.1,N/A,,Clear,0,2013-04-03 19:53:00
3:53 PM,43.0,12.9,30,30.38,10.0,SSE,6.9,-,N/A,,Clear,160,2013-04-03 20:53:00
4:53 PM,43.0,14.0,31,30.36,10.0,South,4.6,-,N/A,,Clear,170,2013-04-03 21:53:00
5:53 PM,43.0,17.1,35,30.35,10.0,South,8.1,-,N/A,,Clear,180,2013-04-03 22:53:00
6:53 PM,39.9,21.9,49,30.35,10.0,SSE,8.1,-,N/A,,Clear,160,2013-04-03 23:53:00
7:53 PM,35.1,23.0,61,30.33,10.0,SE,6.9,-,N/A,,Clear,140,2013-04-04 00:53:00
8:53 PM,34.0,21.9,61,30.32,10.0,SSE,6.9,-,N/A,,Clear,150,2013-04-04 01:53:00
9:53 PM,32.0,21.9,66,30.32,10.0,SSE,8.1,-,N/A,,Clear,150,2013-04-04 02:53:00
10:53 PM,33.1,21.0,61,30.30,10.0,South,6.9,-,N/A,,Clear,170,2013-04-04 03:53:00
11:53 PM,30.0,21.0,69,30.30,10.0,South,4.6,-,N/A,,Clear,190,2013-04-04 04:53:00